#timestamp,LO_Frequency,Hit 
1504260015.7,286047000.8,N
1504260035.5,286046999.4,N
1504260055.3,286046997.0,N
1504260075.2,286046998.3,N
1504260095.9,286046997.0,N
1504260115.7,286046995.4,N
1504260135.5,286046993.4,N
1504260155.4,286046992.8,N
1504260175.2,286046990.3,N
1504260195.0,286046991.0,N
1504260195.9,286046991.0,N
1504260215.8,286046993.2,N
1504260235.6,286046993.8,N
1504260255.4,286046995.1,N
1504260275.3,286046994.9,N
1504260295.1,286046992.6,N
1504260315.8,286046996.8,N
1504260335.7,286046998.2,N
1504260355.5,286046997.7,N
1504260375.3,286046994.2,N
1504260395.2,286046993.7,N
1504260415.9,286046999.8,N
1504260435.7,286047001.1,N
1504260455.5,286047000.5,N
1504260475.4,286047001.8,N
1504260495.2,286047001.6,N
1504260515.0,286046998.7,N
1504260515.9,286046998.7,N
1504260535.8,286046993.8,N
1504260555.6,286046997.0,N
1504260575.4,286046996.9,N
1504260595.3,286047001.1,N
1504260615.1,286047002.1,N
1504260635.8,286047004.3,N
1504260655.7,286046999.9,N
1504260675.5,286046997.5,N
1504260695.3,286046998.7,N
1504260715.2,286047000.3,N
1504260735.9,286047000.7,N
1504260755.7,286047000.4,N
1504260775.6,286047002.5,N
1504260795.4,286046997.8,N
1504260815.2,286046999.4,N
1504260835.0,286046995.2,N
1504260836.0,286046995.2,N
1504260855.8,286046996.2,N
1504260875.6,286046995.7,N
1504260895.4,286046998.1,N
1504260915.3,286046997.7,N
1504260935.1,286046999.3,N
1504260955.8,286046999.8,N
1504260975.7,286046999.9,N
1504260995.5,286046997.9,N
1504261015.3,286046995.5,N
1504261035.2,286047000.1,N
1504261055.9,286046999.4,N
1504261075.7,286046996.8,N
1504261095.6,286046997.7,N
1504261115.4,286047002.4,N
1504261135.2,286047004.1,N
1504261155.1,286047003.8,N
1504261156.0,286047003.8,N
1504261175.8,286047000.9,N
1504261195.6,286046996.0,N
1504261215.5,286046992.3,P
1504261235.3,286046997.0,N
1504261255.1,286046999.5,N
1504261275.9,286046999.9,N
1504261295.7,286047004.1,N
1504261315.5,286047002.5,N
1504261335.3,286047003.7,N
1504261355.2,286047002.2,N
1504261375.0,286046999.6,N
1504261375.9,286046999.6,N
1504261395.7,286046997.3,N
1504261415.6,286046993.9,N
1504261435.4,286046996.5,N
1504261455.2,286046997.4,N
1504261475.1,286047000.2,N
1504261476.0,286047000.2,N
1504261495.8,286047002.5,N
1504261515.6,286047003.9,N
1504261535.5,286047001.6,N
1504261555.3,286046997.2,N
1504261575.1,286047000.0,N
1504261595.9,286046999.8,N
1504261615.7,286047004.6,N
1504261635.5,286047009.0,N
1504261655.4,286047007.0,N
1504261675.2,286047003.1,N
1504261695.0,286047003.5,N
1504261695.9,286047003.5,N
1504261715.7,286047002.4,N
1504261735.6,286047002.2,N
1504261755.4,286047003.7,N
1504261775.2,286047006.0,N
1504261795.1,286047003.1,N
1504261796.0,286047003.1,N
1504261815.8,286047005.3,N
1504261835.6,286047003.0,N
1504261855.5,286047003.4,N
1504261875.3,286047002.1,N
1504261895.1,286047000.0,N
1504261915.9,286047002.6,N
1504261935.7,286047001.8,N
1504261955.5,286047001.0,N
1504261975.4,286046994.3,N
1504261995.2,286046991.8,N
1504262015.0,286046993.4,N
1504262015.9,286046993.4,N
1504262035.8,286046998.9,N
1504262055.6,286047005.7,N
1504262075.4,286047008.0,N
1504262095.2,286047007.8,N
1504262115.1,286047012.4,N
1504262116.0,286047012.4,N
1504262135.8,286047008.8,N
1504262155.6,286047008.5,N
1504262175.5,286047008.9,N
1504262195.3,286047008.8,N
1504262215.1,286047005.7,N
1504262235.9,286047000.8,N
1504262255.7,286046999.7,N
1504262275.5,286047004.0,N
1504262295.4,286047002.1,N
1504262315.2,286047002.9,N
1504262335.0,286047004.5,N
1504262335.9,286047004.5,N
1504262355.8,286047004.5,N
1504262375.6,286047008.7,N
1504262395.4,286047011.5,N
1504262415.3,286047012.4,N
1504262435.1,286047008.4,N
1504262436.0,286047008.4,N
1504262455.8,286047010.7,N
1504262475.6,286047010.5,N
1504262495.5,286047010.8,N
1504262515.3,286047011.9,N
1504262535.1,286047010.4,N
1504262555.9,286047004.8,N
1504262575.7,286047008.9,N
1504262595.5,286047010.2,N
1504262615.4,286047010.4,N
1504262635.2,286047005.2,N
1504262655.0,286047007.2,N
1504262655.9,286047007.2,N
1504262675.8,286047005.6,N
1504262695.6,286047004.6,N
1504262715.4,286047003.8,N
1504262735.3,286047003.1,N
1504262755.1,286047006.6,N
1504262756.0,286047006.6,N
1504262775.8,286047009.0,N
1504262795.7,286047009.2,P
1504262815.5,286046998.8,N
1504262835.3,286046995.4,N
1504262855.2,286046993.3,N
1504262875.9,286046997.9,N
1504262895.7,286046997.3,N
1504262915.6,286046994.5,N
1504262935.4,286046993.0,N
1504262955.2,286046989.9,N
1504262975.0,286046985.5,N
1504262975.9,286046985.5,N
1504262995.8,286046986.8,N
1504263015.6,286046989.5,N
1504263035.4,286046994.5,N
1504263055.3,286046993.7,N
1504263075.1,286046996.3,N
1504263076.0,286046996.3,N
1504263095.8,286046996.7,N
1504263115.7,286047000.8,N
1504263135.5,286046997.7,N
1504263155.3,286046995.1,N
1504263175.2,286046997.7,N
1504263195.9,286046996.2,N
1504263215.7,286046996.5,N
1504263235.5,286046999.5,N
1504263255.4,286047000.9,N
1504263275.2,286046997.0,N
1504263295.0,286046995.3,N
1504263295.9,286046995.3,N
1504263315.8,286046996.3,N
1504263335.6,286046995.6,N
1504263355.4,286046999.2,N
1504263375.3,286047004.3,N
1504263395.1,286047004.3,N
1504263415.8,286047000.0,N
1504263435.7,286047001.1,N
1504263455.5,286046998.5,N
1504263475.3,286047001.6,N
1504263495.2,286047002.5,N
1504263515.9,286047004.2,N
1504263535.7,286047003.6,N
1504263555.6,286047000.7,N
1504263575.4,286046999.6,N
1504263595.2,286046996.8,N
